• In United Kingdom
  • List of Countries
  • For 7 days
  • Water Temperature
  • Satellite Maps
  • Weather Map
  • Weather Widgets
  • user-avatar
    Login

    Hourly Weather Sherpur

    Today, 23 October, Tuesday

    Time Temperature Precipitation Wind Pressure Humidity
    00:00 +10°C° 0 mm 1 mps 609 mmHg 27%
    01:00 +9°C° 0 mm 1 mps 609 mmHg 28%
    02:00 +9°C° 0 mm 1 mps 609 mmHg 29%
    03:00 +9°C° 0 mm 1 mps 609 mmHg 29%
    04:00 +8°C° 0 mm 1 mps 608 mmHg 30%
    05:00 +8°C° 0 mm 1 mps 608 mmHg 31%
    06:00 +9°C° 0 mm 1 mps 609 mmHg 28%
    07:00 +10°C° 0 mm 1 mps 610 mmHg 26%
    08:00 +11°C° 0 mm 1 mps 611 mmHg 24%
    09:00 +13°C° 0 mm 1 mps 611 mmHg 22%
    10:00 +14°C° 0 mm 1 mps 611 mmHg 19%
    11:00 +16°C° 0 mm 1 mps 612 mmHg 17%
    12:00 +16°C° 0 mm 1 mps 612 mmHg 16%
    13:00 +17°C° 0 mm 2 mps 612 mmHg 15%
    14:00 +18°C° 0 mm 2 mps 611 mmHg 14%
    15:00 +17°C° 0 mm 2 mps 611 mmHg 14%
    16:00 +17°C° 0 mm 2 mps 611 mmHg 14%
    17:00 +18°C° 0 mm 1 mps 611 mmHg 14%
    18:00 +15°C° 0 mm 1 mps 611 mmHg 17%
    19:00 +13°C° 0 mm 1 mps 610 mmHg 19%
    20:00 +12°C° 0 mm 1 mps 610 mmHg 21%
    21:00 +10°C° 0 mm 0 mps 610 mmHg 22%
    22:00 +10°C° 0 mm 0 mps 610 mmHg 23%
    23:00 +9°C° 0 mm 0 mps 609 mmHg 24%

    Tomorrow, 24 October, Wednesday

    Time Temperature Precipitation Wind Pressure Humidity
    00:00 +9°C° 0 mm 0 mps 609 mmHg 25%
    01:00 +8°C° 0 mm 0 mps 609 mmHg 26%
    02:00 +8°C° 0 mm 0 mps 608 mmHg 26%
    03:00 +7°C° 0 mm 0 mps 608 mmHg 27%
    04:00 +7°C° 0 mm 0 mps 608 mmHg 27%
    05:00 +7°C° 0 mm 0 mps 608 mmHg 27%
    06:00 +8°C° 0 mm 0 mps 608 mmHg 25%
    07:00 +9°C° 0 mm 0 mps 609 mmHg 23%
    08:00 +10°C° 0 mm 0 mps 610 mmHg 21%
    09:00 +13°C° 0 mm 1 mps 610 mmHg 20%
    10:00 +14°C° 0 mm 1 mps 611 mmHg 18%
    11:00 +15°C° 0 mm 1 mps 611 mmHg 17%
    12:00 +16°C° 0 mm 1 mps 611 mmHg 16%
    13:00 +16°C° 0 mm 2 mps 611 mmHg 16%
    14:00 +17°C° 0 mm 2 mps 611 mmHg 15%
    15:00 +17°C° 0 mm 2 mps 611 mmHg 16%
    16:00 +16°C° 0 mm 2 mps 611 mmHg 17%
    17:00 +16°C° 0 mm 2 mps 610 mmHg 17%
    18:00 +15°C° 0 mm 1 mps 610 mmHg 19%
    19:00 +14°C° 0 mm 1 mps 610 mmHg 20%
    20:00 +13°C° 0 mm 1 mps 610 mmHg 22%
    21:00 +12°C° 0 mm 1 mps 610 mmHg 23%
    22:00 +11°C° 0 mm 1 mps 610 mmHg 25%
    23:00 +11°C° 0 mm 1 mps 610 mmHg 27%

    Day after tomorrow, 25 October, Thursday

    Time Temperature Precipitation Wind Pressure Humidity
    00:00 +10°C° 0 mm 1 mps 610 mmHg 29%
    01:00 +9°C° 0 mm 1 mps 609 mmHg 31%
    02:00 +9°C° 0 mm 1 mps 609 mmHg 33%
    03:00 +7°C° 0 mm 0 mps 609 mmHg 34%
    04:00 +7°C° 0 mm 0 mps 609 mmHg 36%
    05:00 +7°C° 0 mm 0 mps 608 mmHg 37%
    06:00 +8°C° 0 mm 0 mps 609 mmHg 35%
    07:00 +9°C° 0 mm 0 mps 610 mmHg 32%
    08:00 +11°C° 0 mm 0 mps 611 mmHg 29%
    09:00 +13°C° 0 mm 1 mps 611 mmHg 28%
    10:00 +14°C° 0 mm 1 mps 612 mmHg 26%
    11:00 +16°C° 0 mm 1 mps 612 mmHg 25%
    12:00 +16°C° 0 mm 1 mps 612 mmHg 24%
    13:00 +17°C° 0 mm 2 mps 612 mmHg 23%
    14:00 +18°C° 0 mm 2 mps 612 mmHg 22%
    15:00 +17°C° 0 mm 2 mps 612 mmHg 23%
    16:00 +17°C° 0 mm 2 mps 612 mmHg 24%
    17:00 +17°C° 0 mm 2 mps 611 mmHg 24%
    18:00 +15°C° 0 mm 1 mps 611 mmHg 27%
    19:00 +14°C° 0 mm 1 mps 611 mmHg 30%
    20:00 +13°C° 0 mm 1 mps 611 mmHg 32%
    21:00 +12°C° 0 mm 1 mps 611 mmHg 34%
    22:00 +11°C° 0 mm 1 mps 611 mmHg 36%
    23:00 +11°C° 0 mm 1 mps 611 mmHg 38%

    26 October, Friday

    Time Temperature Precipitation Wind Pressure Humidity
    00:00 +10°C° 0 mm 1 mps 611 mmHg 40%
    01:00 +9°C° 0 mm 0 mps 611 mmHg 41%
    02:00 +8°C° 0 mm 0 mps 610 mmHg 42%
    03:00 +8°C° 0 mm 0 mps 610 mmHg 43%
    04:00 +7°C° 0 mm 0 mps 610 mmHg 44%
    05:00 +7°C° 0 mm 0 mps 610 mmHg 45%
    06:00 +9°C° 0 mm 0 mps 611 mmHg 41%
    07:00 +11°C° 0 mm 1 mps 612 mmHg 38%
    08:00 +12°C° 0 mm 1 mps 613 mmHg 34%
    09:00 +14°C° 0 mm 1 mps 613 mmHg 31%
    10:00 +16°C° 0 mm 1 mps 614 mmHg 28%
    11:00 +18°C° 0 mm 1 mps 614 mmHg 25%
    12:00 +18°C° 0 mm 2 mps 614 mmHg 23%
    13:00 +19°C° 0 mm 2 mps 614 mmHg 22%
    14:00 +20°C° 0 mm 2 mps 614 mmHg 21%
    15:00 +19°C° 0 mm 2 mps 614 mmHg 21%
    16:00 +19°C° 0 mm 2 mps 613 mmHg 21%
    17:00 +19°C° 0 mm 2 mps 613 mmHg 22%
    18:00 +18°C° 0 mm 1 mps 613 mmHg 25%
    19:00 +16°C° 0 mm 1 mps 613 mmHg 28%
    20:00 +14°C° 0 mm 1 mps 612 mmHg 31%
    21:00 +13°C° 0 mm 0 mps 612 mmHg 32%
    22:00 +12°C° 0 mm 0 mps 612 mmHg 33%
    23:00 +11°C° 0 mm 0 mps 612 mmHg 34%

    27 October, Saturday

    Time Temperature Precipitation Wind Pressure Humidity
    00:00 +11°C° 0 mm 0 mps 611 mmHg 35%
    01:00 +12°C° 0 mm 1 mps 611 mmHg 35%
    02:00 +11°C° 0 mm 1 mps 611 mmHg 36%
    03:00 +11°C° 0 mm 1 mps 611 mmHg 37%
    04:00 +11°C° 0 mm 1 mps 611 mmHg 38%
    05:00 +11°C° 0 mm 1 mps 611 mmHg 39%
    06:00 +12°C° 0 mm 1 mps 612 mmHg 37%
    07:00 +13°C° 0 mm 1 mps 613 mmHg 34%
    08:00 +14°C° 0 mm 1 mps 613 mmHg 32%
    09:00 +16°C° 0 mm 1 mps 614 mmHg 29%
    10:00 +19°C° 0 mm 1 mps 614 mmHg 25%
    11:00 +21°C° 0 mm 1 mps 615 mmHg 22%
    12:00 +22°C° 0 mm 1 mps 615 mmHg 21%
    13:00 +23°C° 0 mm 1 mps 614 mmHg 20%
    14:00 +23°C° 0 mm 2 mps 614 mmHg 18%
    15:00 +23°C° 0 mm 1 mps 614 mmHg 19%
    16:00 +22°C° 0 mm 1 mps 614 mmHg 20%
    17:00 +22°C° 0 mm 1 mps 614 mmHg 21%
    18:00 +20°C° 0 mm 1 mps 613 mmHg 24%
    19:00 +18°C° 0 mm 1 mps 613 mmHg 27%
    20:00 +16°C° 0 mm 1 mps 613 mmHg 30%
    21:00 +15°C° 0 mm 1 mps 613 mmHg 31%
    22:00 +14°C° 0 mm 1 mps 613 mmHg 32%
    23:00 +13°C° 0 mm 0 mps 612 mmHg 34%

    28 October, Sunday

    Time Temperature Precipitation Wind Pressure Humidity
    00:00 +12°C° 0 mm 0 mps 612 mmHg 35%
    01:00 +12°C° 0 mm 0 mps 612 mmHg 36%
    02:00 +11°C° 0 mm 0 mps 611 mmHg 37%
    03:00 +12°C° 0 mm 1 mps 611 mmHg 37%
    04:00 +12°C° 0 mm 1 mps 611 mmHg 37%
    05:00 +12°C° 0 mm 1 mps 611 mmHg 38%
    06:00 +13°C° 0 mm 1 mps 612 mmHg 36%
    07:00 +14°C° 0 mm 1 mps 613 mmHg 33%
    08:00 +15°C° 0 mm 1 mps 614 mmHg 31%
    09:00 +18°C° 0 mm 1 mps 614 mmHg 29%
    10:00 +18°C° 0 mm 2 mps 615 mmHg 26%
    11:00 +20°C° 0 mm 2 mps 615 mmHg 24%
    12:00 +20°C° 0 mm 2 mps 615 mmHg 23%
    13:00 +21°C° 0 mm 3 mps 615 mmHg 23%
    14:00 +22°C° 0 mm 3 mps 615 mmHg 23%
    15:00 +21°C° 0 mm 3 mps 615 mmHg 25%
    16:00 +20°C° 0 mm 3 mps 615 mmHg 27%
    17:00 +19°C° 0 mm 3 mps 614 mmHg 30%
    18:00 +18°C° 0 mm 3 mps 614 mmHg 34%
    19:00 +17°C° 0 mm 3 mps 614 mmHg 38%
    20:00 +16°C° 0 mm 2 mps 614 mmHg 42%
    21:00 +16°C° 0 mm 2 mps 614 mmHg 44%
    22:00 +15°C° 0 mm 2 mps 614 mmHg 45%
    23:00 +15°C° 0 mm 2 mps 614 mmHg 47%
    Show more